Wetbulb
70.87 71.83 71.38 70.00 69.64 69.39 68.87 69.27 69.58 69.77 70.11 70.31 70.22 69.83 69.72 70.32 70.55 70.59 70.18 69.53 69.41 68.34 66.93 65.72 65.07 64.34 65.29 64.92 65.03 66.40 70.59 70.54
69.89 71.00 71.51 71.98 71.74 68.24 68.02 68.11 68.20 68.76 69.19 69.13 68.52 68.47 68.71 69.00 69.12 69.50 69.50 69.14 68.36 66.81 65.53 64.20 63.19 63.82 64.37 64.65 64.98 66.61 70.26 70.04
69.29 69.77 70.51 71.29 71.32 70.55 68.44 68.10 67.86 68.04 69.27 68.45 67.48 70.42 69.93 69.50 68.04 68.09 68.03 67.43 66.80 65.37 63.63 62.38 63.47 63.91 64.45 64.55 65.52 69.32 69.31 69.25
68.92 68.96 69.52 70.14 69.54 70.83 70.68 70.16 69.93 70.46 71.10 71.09 70.70 70.06 69.60 68.36 67.35 66.50 66.60 65.80 64.86 63.57 61.76 61.45 62.33 63.97 65.41 64.43 67.69 68.05 67.76 67.56
67.46 67.85 68.38 69.64 69.40 69.90 69.82 69.82 69.93 70.41 70.96 70.74 69.86 68.69 68.30 67.62 67.28 66.17 65.86 63.82 62.84 60.99 59.99 59.17 60.86 62.88 64.70 65.81 66.22 66.44 66.70 66.23
67.73 67.85 67.20 68.82 69.63 69.20 69.35 69.03 69.58 69.27 69.84 69.58 68.32 67.07 66.64 65.81 65.30 64.57 63.35 61.96 60.20 58.60 57.94 58.40 61.33 62.73 63.92 64.14 63.71 64.00 64.34 64.37
67.48 67.39 66.54 67.32 68.84 68.79 68.69 68.99 68.96 68.44 68.08 68.18 67.89 66.85 65.85 64.60 63.84 62.84 61.34 59.41 58.16 56.91 57.84 58.40 60.51 61.33 61.61 61.18 60.69 60.93 61.43 62.16
67.67 66.94 66.30 66.74 67.08 68.18 68.03 68.98 69.33 68.45 67.43 67.09 67.29 66.55 65.97 63.86 62.12 61.12 59.50 58.06 57.04 57.11 57.34 58.87 59.48 59.76 58.94 58.91 58.63 59.56 60.65 61.65
67.85 66.67 66.37 65.88 66.32 67.56 68.14 68.55 68.57 68.10 67.33 65.94 66.19 66.25 65.47 63.70 61.90 59.42 58.09 57.45 57.16 56.23 56.55 58.29 57.93 57.81 56.81 56.73 57.34 58.33 59.50 60.10
68.39 67.68 66.69 65.43 65.45 66.52 67.09 67.67 67.60 67.94 67.19 64.26 63.67 64.71 64.68 63.12 61.21 59.82 57.63 57.24 56.69 55.59 56.37 57.03 56.57 56.44 55.05 55.03 55.41 56.48 58.20 58.53
67.72 67.52 65.92 65.69 65.12 66.02 66.64 67.10 66.85 67.04 66.55 64.92 62.83 63.09 63.75 62.99 61.10 59.04 57.16 56.51 56.32 55.34 56.00 56.59 55.46 54.83 53.85 53.49 53.82 54.31 56.62 56.98
67.17 67.34 66.82 66.65 65.60 64.90 64.66 64.63 65.23 65.38 64.17 64.24 63.70 62.36 63.21 62.04 61.15 58.98 56.80 55.80 55.82 55.36 55.59 56.63 55.93 54.62 52.08 51.29 51.78 52.41 53.96 55.58
61.08 63.77 65.65 66.85 65.10 62.95 62.00 61.14 61.35 62.83 64.13 64.01 62.31 62.34 62.87 61.48 60.75 59.72 57.06 55.96 55.39 55.12 55.72 55.23 54.52 54.63 50.87 49.68 49.70 50.80 51.55 53.08
60.05 61.14 61.46 64.71 66.06 65.32 63.61 62.55 62.50 62.35 61.87 63.40 63.82 62.76 62.09 59.84 60.23 59.37 57.36 55.91 54.79 54.49 55.01 54.21 54.10 53.31 52.16 50.33 46.55 47.47 49.41 51.15
56.98 59.51 61.36 62.47 64.68 65.65 60.30 58.41 55.75 57.06 58.68 60.05 61.41 61.96 61.61 61.13 60.20 59.00 56.57 56.43 54.24 54.23 55.41 55.02 51.91 52.52 53.25 51.19 45.02 45.17 45.60 47.71
55.01 57.40 59.80 62.12 65.19 65.29 60.41 60.50 58.87 58.45 59.44 59.07 60.86 60.92 60.37 60.44 60.16 58.32 56.98 56.16 55.47 54.43 55.10 56.01 54.25 51.09 51.20 50.67 51.01 49.09 45.34 40.78
52.57 54.64 56.50 59.06 60.66 64.13 64.52 62.35 62.51 62.61 58.88 57.71 58.41 57.52 57.90 58.07 58.47 57.92 56.84 55.27 55.02 54.15 53.61 54.81 55.49 54.14 51.64 49.16 47.61 47.62 47.65 45.63
51.89 51.94 52.96 55.81 57.69 59.52 59.08 59.72 60.96 58.62 57.91 57.41 57.47 55.83 55.65 55.24 54.96 55.64 56.87 55.43 54.28 52.52 52.27 53.41 54.73 54.38 53.08 50.55 48.04 46.67 45.50 44.32
50.32 50.43 50.69 52.63 54.38 55.76 56.92 58.12 57.97 58.69 58.64 56.86 56.27 54.70 53.60 53.76 52.48 52.24 52.65 53.20 52.81 52.89 50.24 49.65 50.61 52.83 51.80 49.52 49.89 48.16 47.49 46.10
49.16 49.25 49.31 50.57 51.64 52.93 54.53 55.82 56.35 57.08 57.47 57.50 56.88 56.09 54.88 53.74 51.18 49.83 47.38 47.17 47.28 47.38 46.37 45.41 45.34 45.74 46.63 44.77 46.09 44.95 45.67 45.67
MSLP
1012.29 1012.59 1012.67 1012.92 1013.42 1013.82 1014.13 1014.39 1014.58 1015.07 1015.48 1015.94 1016.22 1016.53 1016.89 1017.10 1017.29 1017.44 1017.47 1017.73 1017.85 1017.84 1018.12 1018.57 1018.53 1018.53 1018.60 1018.67 1018.65 1018.72 1018.50 1018.60
1012.16 1012.64 1012.95 1013.19 1013.44 1013.76 1013.97 1014.21 1014.56 1014.98 1015.50 1015.98 1016.37 1016.63 1016.93 1017.24 1017.47 1017.65 1017.77 1018.02 1018.11 1018.34 1018.25 1018.55 1018.71 1018.77 1018.75 1018.88 1018.83 1018.76 1018.52 1018.61
1011.93 1012.29 1012.75 1013.14 1013.38 1013.69 1014.16 1014.30 1014.52 1014.91 1015.50 1015.99 1016.39 1016.44 1016.82 1017.12 1017.34 1017.77 1017.89 1018.20 1018.35 1018.57 1018.68 1018.81 1018.90 1018.99 1019.03 1019.03 1018.90 1018.55 1018.72 1018.73
1012.33 1012.52 1012.79 1013.08 1013.24 1013.56 1013.99 1014.24 1014.47 1014.73 1015.19 1015.68 1016.05 1016.41 1016.75 1017.09 1017.51 1017.85 1017.88 1018.13 1018.43 1018.83 1019.13 1019.26 1019.20 1019.06 1019.26 1019.39 1018.77 1018.87 1018.89 1018.95
1011.66 1012.17 1012.61 1012.86 1013.06 1013.40 1013.68 1014.10 1014.55 1014.82 1015.13 1015.44 1015.90 1016.35 1016.77 1017.04 1017.35 1017.76 1018.01 1018.23 1018.13 1018.64 1019.00 1019.30 1019.51 1019.50 1019.55 1019.57 1019.63 1019.62 1019.43 1019.51
1011.10 1011.63 1012.08 1012.38 1012.64 1013.04 1013.30 1013.66 1014.07 1014.58 1015.05 1015.54 1015.94 1016.32 1016.72 1016.99 1017.31 1017.64 1018.08 1018.34 1018.56 1018.74 1019.00 1019.17 1019.63 1019.94 1020.10 1020.23 1020.29 1020.17 1020.15 1020.16
1010.90 1011.62 1011.87 1012.08 1012.44 1012.58 1013.05 1013.29 1013.74 1014.14 1014.56 1014.98 1015.35 1015.76 1016.30 1016.78 1017.17 1017.59 1017.97 1018.43 1018.64 1019.03 1019.15 1019.33 1019.67 1020.07 1020.36 1020.60 1020.74 1020.84 1020.89 1020.74
1011.09 1011.57 1012.18 1012.39 1012.49 1012.64 1012.90 1013.18 1013.37 1013.85 1014.16 1014.40 1014.79 1015.12 1015.56 1016.04 1016.52 1017.08 1017.56 1017.91 1018.22 1018.74 1019.16 1019.45 1019.75 1020.18 1020.57 1020.75 1020.88 1020.96 1021.14 1021.15
1010.57 1011.00 1011.61 1012.09 1012.40 1012.80 1012.95 1013.13 1013.53 1013.61 1013.97 1014.51 1014.92 1015.10 1015.47 1015.83 1016.10 1016.50 1016.88 1017.70 1018.24 1018.46 1019.02 1019.42 1019.84 1020.30 1020.71 1021.01 1021.19 1021.32 1021.31 1021.40
1010.18 1010.66 1011.17 1011.48 1011.72 1012.10 1012.32 1012.40 1012.88 1013.33 1013.85 1014.08 1014.72 1014.98 1015.18 1015.69 1015.86 1016.15 1016.50 1016.97 1017.60 1018.14 1018.50 1018.92 1019.58 1020.07 1020.46 1020.80 1021.07 1021.28 1021.59 1021.71
1009.94 1010.29 1010.70 1011.16 1011.45 1011.52 1011.66 1011.96 1012.24 1012.51 1013.32 1013.75 1014.50 1014.95 1015.16 1015.16 1015.25 1015.47 1016.12 1016.36 1016.67 1017.28 1018.02 1018.43 1019.04 1019.82 1020.51 1021.02 1021.36 1021.41 1021.46 1021.63
1010.14 1010.42 1010.58 1010.75 1010.93 1011.29 1011.59 1011.68 1011.81 1011.97 1012.37 1012.80 1013.31 1014.10 1014.69 1015.40 1015.48 1015.56 1015.95 1016.17 1016.44 1016.71 1017.29 1018.17 1018.66 1019.26 1020.05 1020.92 1021.51 1021.84 1021.99 1022.03
1010.18 1010.41 1010.45 1010.43 1010.61 1010.85 1011.20 1011.33 1011.70 1011.71 1011.73 1012.10 1012.52 1013.24 1013.74 1014.49 1015.14 1015.67 1016.03 1016.00 1016.29 1017.08 1017.20 1017.69 1018.58 1019.34 1020.27 1021.40 1021.90 1022.22 1022.35 1022.52
1010.68 1010.39 1010.26 1010.23 1010.01 1010.28 1010.57 1010.78 1010.87 1011.22 1011.55 1011.69 1012.07 1012.41 1012.92 1013.47 1013.96 1014.40 1015.17 1015.65 1016.19 1016.50 1016.96 1017.49 1018.05 1018.80 1018.66 1020.18 1021.50 1022.56 1022.67 1022.97
1011.27 1010.89 1010.45 1010.00 1009.85 1010.16 1010.71 1011.12 1011.35 1011.42 1011.56 1011.58 1011.65 1011.85 1012.21 1012.49 1012.77 1013.37 1014.19 1014.82 1015.31 1015.95 1016.21 1016.43 1016.99 1018.19 1018.29 1018.07 1019.87 1020.10 1021.79 1022.78
1011.62 1011.13 1010.66 1010.21 1010.01 1009.93 1010.37 1010.61 1010.78 1010.51 1010.34 1010.49 1010.67 1011.10 1011.34 1011.47 1012.14 1012.75 1013.03 1013.65 1014.12 1014.70 1015.43 1015.80 1016.28 1016.88 1018.05 1018.19 1018.22 1018.48 1019.87 1022.14
1012.08 1011.53 1011.09 1010.80 1010.46 1010.23 1010.20 1010.32 1010.17 1009.94 1010.19 1010.27 1010.35 1010.52 1010.75 1011.10 1011.29 1012.00 1012.49 1012.88 1013.28 1013.89 1014.71 1015.15 1015.47 1015.92 1016.45 1017.38 1018.35 1018.82 1019.14 1019.70
1012.23 1011.74 1011.31 1011.17 1010.99 1010.62 1010.52 1010.33 1010.15 1009.91 1009.79 1010.00 1010.13 1010.39 1010.50 1010.88 1011.07 1011.25 1011.71 1012.27 1012.67 1013.15 1013.81 1014.50 1014.85 1015.21 1015.78 1016.39 1016.85 1017.04 1018.08 1019.06
1012.32 1012.04 1011.45 1011.16 1010.84 1010.45 1010.46 1010.26 1009.93 1009.73 1009.54 1009.56 1009.52 1009.71 1009.99 1010.20 1010.42 1010.64 1011.07 1011.54 1012.16 1012.76 1013.33 1014.00 1014.72 1014.97 1015.75 1016.00 1016.80 1017.16 1017.26 1018.18
1012.27 1012.17 1011.89 1011.63 1011.39 1010.88 1010.65 1010.25 1009.89 1009.52 1009.24 1009.00 1009.02 1008.90 1008.74 1009.35 1009.88 1010.22 1010.35 1011.21 1011.88 1012.54 1013.23 1013.81 1014.32 1014.66 1015.46 1016.48 1016.50 1017.47 1017.74 1017.58
Wind_Speed
10 11 13 12 12 12 12 12 13 12 12 11 11 11 10 9 8 8 10 10 9 11 11 8 8 8 8 10 10 7 8 6
11 10 10 10 11 11 12 12 12 12 11 11 10 10 9 8 8 8 8 8 8 10 11 9 8 8 10 10 10 9 9 9
12 11 11 10 11 10 9 11 12 12 11 11 10 8 9 10 6 8 8 6 7 9 9 8 9 9 9 9 8 6 8 6
10 10 10 11 9 10 10 9 9 10 11 12 8 8 7 6 6 7 8 8 8 9 7 7 6 5 6 7 5 8 6 6
14 12 11 12 9 8 6 6 6 7 11 10 8 6 6 5 5 5 5 7 6 6 7 3 4 4 5 4 6 5 4 4
15 16 10 13 9 9 9 8 8 7 8 9 7 5 6 6 5 5 5 4 5 5 4 6 6 5 6 6 5 4 3 3
14 14 10 13 13 9 9 10 9 10 9 10 9 8 7 7 6 5 5 4 4 4 4 6 7 7 6 6 6 5 5 3
11 11 8 10 11 12 9 9 10 10 10 10 12 9 9 9 8 7 6 6 6 6 6 7 7 7 7 7 6 6 6 6
12 10 9 9 12 11 9 9 9 9 9 10 10 10 10 10 8 8 8 7 8 8 8 8 8 7 8 7 6 6 6 7
11 10 10 11 10 9 10 10 10 9 8 6 9 11 11 10 9 8 9 9 9 8 9 9 8 8 8 7 6 6 7 7
12 12 11 11 9 9 12 12 11 10 8 7 8 10 12 11 10 9 12 10 10 10 10 11 10 9 8 7 6 6 7 7
8 9 12 10 8 7 7 8 10 9 8 8 10 10 13 11 9 9 10 9 10 11 13 10 11 11 10 8 6 5 4 5
7 4 8 9 6 5 5 6 6 8 10 13 12 11 14 14 10 10 10 10 10 12 11 14 11 12 11 7 5 4 5 4
9 7 5 9 10 8 5 5 6 7 8 11 13 14 15 12 13 12 13 10 12 14 14 12 8 13 9 9 6 3 3 3
12 11 11 7 9 4 2 3 2 1 4 7 11 15 16 16 15 13 13 12 11 14 15 18 11 13 13 6 6 6 9 4
12 13 13 11 5 6 7 7 7 8 9 8 10 15 14 16 16 15 14 12 13 14 13 14 12 14 10 3 1 9 7 7
9 11 11 11 10 8 6 9 8 6 4 7 9 9 12 13 15 16 15 11 13 14 15 15 12 12 12 8 5 3 5 5
7 9 9 10 10 9 8 9 10 6 7 7 7 6 7 10 11 12 13 12 13 12 13 16 13 12 12 10 9 8 9 5
7 7 7 7 7 8 9 10 11 13 12 8 8 7 6 9 11 10 10 11 10 11 10 10 8 10 12 9 8 5 6 5
9 9 10 8 8 7 8 9 7 9 11 10 9 8 8 10 9 9 10 11 9 8 7 7 8 6 9 5 4 3 5 6
Wind_Direction
165 173 168 157 158 158 159 157 149 150 153 155 151 148 148 147 143 135 129 140 146 127 125 132 130 123 109 113 113 106 125 124
172 179 182 180 178 170 170 159 157 158 156 155 155 147 147 147 145 140 136 144 145 129 131 135 130 125 118 117 116 130 129 130
185 185 189 187 186 183 171 164 165 158 160 158 152 167 167 164 145 146 139 143 131 125 130 131 116 121 123 125 155 140 134 129
202 197 202 197 194 187 191 187 185 181 176 171 172 165 168 164 157 149 139 135 124 119 120 113 153 146 134 140 145 141 143 141
200 201 206 206 202 193 193 191 190 186 181 175 167 162 163 168 164 167 165 151 156 149 143 157 159 158 153 144 133 143 130 113
201 203 193 204 201 202 197 196 188 183 182 174 169 171 174 170 180 169 175 175 159 160 154 145 141 132 133 124 118 116 113 103
209 210 204 206 207 203 200 202 195 184 181 182 182 184 182 176 174 175 179 173 168 156 147 149 137 133 126 123 114 103 95 89
217 216 222 224 212 207 205 208 202 194 191 190 191 189 186 183 174 178 177 180 160 155 151 146 137 138 127 128 127 119 106 100
210 194 191 207 212 216 217 216 209 210 204 192 200 200 198 191 183 178 173 170 153 146 141 140 140 138 131 128 127 120 117 107
221 211 200 200 203 206 214 212 208 215 214 181 196 207 202 197 192 189 174 166 164 162 159 152 152 154 147 143 138 131 124 117
232 219 209 205 210 209 213 216 214 215 217 202 193 210 212 210 201 187 177 176 173 167 167 163 158 155 147 139 138 136 139 134
255 241 228 215 203 205 215 217 219 213 204 209 196 201 208 213 215 195 186 184 181 176 167 170 165 156 144 134 131 127 134 138
37 292 240 231 210 199 208 217 219 226 223 210 195 203 206 204 211 210 203 198 185 180 169 162 161 153 135 125 109 114 132 134
22 10 312 254 242 223 216 202 219 224 217 224 222 211 203 196 203 204 197 195 188 182 175 168 161 177 163 146 161 152 150 144
9 3 346 309 255 249 62 38 43 62 233 231 224 219 215 210 202 197 193 195 193 189 185 179 170 186 179 146 158 191 154 166
9 6 6 7 319 246 188 214 224 216 219 209 215 218 218 214 214 206 196 196 195 192 190 192 177 181 191 191 217 138 174 166
360 3 10 3 359 330 273 250 258 274 229 219 218 210 209 209 210 211 208 200 199 191 189 198 195 186 188 168 154 144 142 150
356 359 358 356 347 341 317 284 269 254 240 243 232 217 208 213 211 210 207 204 197 191 190 197 197 198 194 189 185 170 169 157
328 330 325 331 327 330 324 305 286 275 265 249 227 212 206 208 199 199 200 199 193 185 179 183 187 194 194 188 201 188 155 142
317 315 312 314 310 312 309 307 298 284 272 261 252 238 214 190 181 171 146 144 149 146 146 147 149 147 158 160 159 155 169 165